星链-2580 (STARLINK-2580 )

导读

STARLINK-2580是美国SpaceX公司星链(Starlink)低轨通信星座中的一员,于2021年4月29日发射入轨,属于星链卫星互联网项目的组网卫星。星链星座旨在为全球提供高速宽带互联网服务,单星采用平板设计与太阳能供电,配备霍尔推进器支持轨道调整和末期离轨,可自主避撞,服役寿命约5-7年,脱轨后会在大气层焚毁减少空间碎片威胁。

基本信息
目录编号:
48279
目录名称:
STARLINK-2580
国际标识:
2021-036D
轨道中心:
EARTH
卫星名称:
星链-2580
卫星全名:
星链-2580 (STARLINK-2580 )
卫星状态:
已陨落 最后检测时间 2025-04-17
发射日期:
2021-04-29 UTC
国别 :
美国 (US)
星等 :
--
轨道信息
数据来源 国际轨道数据
星历时间: 2025-04-17T14:09:45+0800
轨道信息已过期427天
半长轴: 6561.219km
偏心率: 0.0006564
轨道倾角: 53.036°
近地点辐角 252.538°
升交点赤经 29.268°
平近点角 238.426°
近地点: 178.777km
远地点: 187.391km
周期: 88.153分钟
每日圈数: 16.335259
详细信息
固有亮度:
5
最大亮度:
2.5
卫星平台:
Starlink V1.0
覆盖范围:
全球
运营商:
太空探索技术公司
运营商所在国:
美国
制造商(研发单位):
太空探索技术公司
制造商所在国:
美国
使用方式:
暂无
卫星简介
星链(Starlink)计划是由太空探索技术公司(SpaceX)提出的一个巨型低轨卫星互联网星座项目,计划在2019年至2024年间在太空搭建由约1.2万颗卫星组成的“星链”网络,其中1584颗将部署在地球上空550千米处的近地轨道,并从2020年开始工作。该卫星仍在工作。